Stations météo

réclame
Mon MeteoGroup
Sa Pobla, Espagne (8312): Température de l'air & dewpoint: 16.07.2018 16:00:00 - 22.07.2018 16:00:00 (CEST)Sa Pobla, Espagne (8312): Vitesse du vent & gusts: 16.07.2018 16:00:00 - 22.07.2018 16:00:00 (CEST)Sa Pobla, Espagne (8312): Direction du vent: 16.07.2018 16:00:00 - 22.07.2018 16:00:00 (CEST)Sa Pobla, Espagne (8312): reduced air pressure: 16.07.2018 16:00:00 - 22.07.2018 16:00:00 (CEST)Sa Pobla, Espagne (8312): visibility: 16.07.2018 16:00:00 - 22.07.2018 16:00:00 (CEST)Sa Pobla, Espagne (8312): Ensoleillement: 16.07.2018 16:00:00 - 22.07.2018 16:00:00 (CEST)Sa Pobla, Espagne (8312): Quantités de précipitations: 16.07.2018 16:00:00 - 22.07.2018 16:00:00 (CEST)
Date & Time tt [°C] td [°C] ff [km/h] ff [knt] fx [km/h] fx [knt] dd ppp [hPa] vv [km] sd [min] rr [mm]
22.07.2018 16:00:00 - - 16 9 30 16 NE - - 0 0,0
22.07.2018 15:00:00 - - 16 9 31 17 NE - - 0 0,0
22.07.2018 14:00:00 - - 16 9 32 17 NE - - 0 -
22.07.2018 13:00:00 - - 16 9 29 16 ENE - - 0 0,0
22.07.2018 12:00:00 - - 13 7 24 13 NE - - 0 0,0
22.07.2018 11:00:00 - - 5 3 13 7 E - - 0 0,0
22.07.2018 10:00:00 - - 5 3 15 8 ENE - - 0 0,0
22.07.2018 09:00:00 - - 5 3 9 5 SE - - 0 0,0
22.07.2018 08:00:00 - - 4 2 8 4 NW - - 0 -
22.07.2018 07:00:00 - - 3 2 6 3 WSW - - 0 0,0
22.07.2018 06:00:00 - - 2 1 5 3 SSW - - 0 0,0
22.07.2018 05:00:00 - - 3 1 5 3 SSE - - 0 0,0
22.07.2018 04:00:00 - - 4 2 6 3 S - - 0 0,0
22.07.2018 03:00:00 - - 4 2 7 4 WSW - - 0 0,0
22.07.2018 02:00:00 - - 4 2 8 5 W - - 0 -
22.07.2018 01:00:00 - - 5 3 7 4 S - - 0 0,0
22.07.2018 00:00:00 - - 6 3 8 5 NW - - 0 0,0
21.07.2018 23:00:00 - - 3 2 9 5 NNE - - 0 0,0
21.07.2018 22:00:00 - - 8 4 16 9 NNE - - 0 0,0
21.07.2018 21:00:00 - - 8 4 17 9 NE - - 0 0,0
21.07.2018 20:00:00 - - 10 5 20 11 NE - - 0 -
21.07.2018 19:00:00 - - 11 6 22 12 ENE - - 0 0,0
21.07.2018 18:00:00 - - 14 7 29 16 ENE - - 0 0,0
21.07.2018 17:00:00 - - 17 9 33 18 ENE - - 0 0,0
21.07.2018 16:00:00 - - 16 9 33 18 ENE - - 0 0,0
21.07.2018 15:00:00 - - 20 11 33 18 ENE - - 0 0,0
21.07.2018 14:00:00 - - 18 10 34 18 NE - - 0 -
21.07.2018 13:00:00 - - 17 9 31 17 NE - - 0 0,0
21.07.2018 12:00:00 - - 16 8 32 18 NE - - 0 0,0
21.07.2018 11:00:00 - - 19 11 30 16 NE - - 0 0,0
21.07.2018 10:00:00 - - 13 7 26 14 NE - - 0 0,0
21.07.2018 09:00:00 - - 16 9 35 19 NE - - 0 0,0
21.07.2018 08:00:00 - - 16 9 32 17 NE - - 0 -
21.07.2018 07:00:00 - - 22 12 32 17 NNE - - 0 0,0
21.07.2018 06:00:00 - - 16 9 33 18 N - - 0 0,0
21.07.2018 05:00:00 - - 17 9 31 17 N - - 0 0,0
21.07.2018 04:00:00 - - 7 4 20 11 N - - 0 0,0
21.07.2018 03:00:00 - - 5 3 8 4 S - - 0 0,0
21.07.2018 02:00:00 - - 4 2 10 5 S - - 0 -
21.07.2018 01:00:00 - - 5 3 11 6 SE - - 0 0,0
21.07.2018 00:00:00 - - 5 3 17 9 SW - - 0 0,0
20.07.2018 23:00:00 - - 8 4 18 10 SSW - - 0 0,0
20.07.2018 22:00:00 - - 8 5 20 11 SW - - 0 0,0
20.07.2018 21:00:00 - - 9 5 23 12 SW - - 0 0,0
20.07.2018 20:00:00 - - 9 5 27 15 SW - - 0 -
20.07.2018 19:00:00 - - 14 8 28 15 SW - - 0 0,0
20.07.2018 18:00:00 - - 17 9 29 15 S - - 0 0,0
20.07.2018 17:00:00 - - 15 8 29 15 S - - 0 0,0
20.07.2018 16:00:00 - - 13 7 29 16 S - - 0 0,0
20.07.2018 15:00:00 - - 13 7 22 12 NE - - 0 0,0
20.07.2018 14:00:00 - - 13 7 23 12 ENE - - 0 -
20.07.2018 13:00:00 - - 8 4 24 13 SSE - - 0 0,0
20.07.2018 12:00:00 - - 7 4 16 9 SW - - 0 0,0
20.07.2018 11:00:00 - - 4 2 20 11 E - - 0 0,0
20.07.2018 10:00:00 - - 8 4 16 9 S - - 0 0,0
20.07.2018 09:00:00 - - 5 3 - - SW - - - -
20.07.2018 08:00:00 - - - - - - - - - - -
20.07.2018 07:00:00 - - - - - - - - - - -
20.07.2018 06:00:00 - - - - - - - - - - -
20.07.2018 05:00:00 - - - - - - - - - - -
20.07.2018 04:00:00 - - - - - - - - - - -
20.07.2018 03:00:00 - - - - - - - - - - -
20.07.2018 02:00:00 - - - - - - - - - - -
20.07.2018 01:00:00 - - - - - - - - - - -
20.07.2018 00:00:00 24,5 18,0 6 3 9 5 SSW - - 0 0,0
19.07.2018 23:00:00 25,3 13,5 4 2 12 7 SE - - 0 0,0
19.07.2018 22:00:00 27,7 11,7 7 4 20 11 SSE 1015,3 - 0 0,0
19.07.2018 21:00:00 29,5 12,0 13 7 27 15 SE 1014,6 20 13 0,0
19.07.2018 20:00:00 31,4 12,2 17 9 27 15 SE 1014,5 20 60 -
19.07.2018 19:00:00 33,3 13,9 10 5 25 13 E 1014,3 20 60 0,0
19.07.2018 18:00:00 32,7 14,3 16 9 27 15 NNE 1014,6 20 60 0,0
19.07.2018 17:00:00 32,9 13,6 16 9 25 14 NE 1015,2 20 60 0,0
19.07.2018 16:00:00 33,1 13,8 15 8 25 13 NE 1015,7 20 60 0,0
19.07.2018 15:00:00 33,4 13,0 16 8 26 14 NE 1016,0 20 60 0,0
19.07.2018 14:00:00 32,9 12,5 13 7 29 16 NE 1016,4 20 60 -
19.07.2018 13:00:00 32,5 12,2 16 8 26 14 NE 1016,5 20 60 0,0
19.07.2018 12:00:00 32,5 13,2 9 5 21 11 ENE 1016,7 20 60 0,0
19.07.2018 11:00:00 30,8 13,2 6 4 16 9 NNE 1016,6 20 60 0,0
19.07.2018 10:00:00 29,1 14,1 5 3 10 5 ESE 1016,8 - 60 0,0
19.07.2018 09:00:00 25,0 15,9 4 2 9 5 S 1016,6 - 60 0,0
19.07.2018 08:00:00 20,2 15,0 5 3 10 6 S 1016,2 - 50 -
19.07.2018 07:00:00 18,5 13,9 5 3 9 5 SW 1015,6 - 0 0,0
19.07.2018 06:00:00 18,9 15,0 6 4 10 5 SSW 1015,4 20 0 0,0
19.07.2018 05:00:00 19,2 15,1 5 3 9 5 SW 1015,5 20 0 0,0
19.07.2018 04:00:00 19,4 15,1 7 4 8 5 SSW 1015,8 20 0 0,0
19.07.2018 03:00:00 19,8 14,6 2 1 8 5 SW 1015,7 20 0 0,0
19.07.2018 02:00:00 21,0 15,1 6 4 9 5 W 1016,2 4,8 0 -
19.07.2018 01:00:00 22,1 15,4 4 2 8 5 ESE 1016,7 20 0 0,0
19.07.2018 00:00:00 23,2 15,3 3 2 10 6 WNW 1016,4 20 0 0,0
18.07.2018 23:00:00 24,6 15,3 6 4 10 5 SE 1016,0 20 0 0,0
18.07.2018 22:00:00 26,3 15,3 6 4 16 9 SSE 1015,3 20 0 0,0
18.07.2018 21:00:00 28,1 14,3 10 5 23 12 SSE 1014,5 20 9 0,0
18.07.2018 20:00:00 30,1 13,4 12 7 20 11 SE 1014,5 20 60 -
18.07.2018 19:00:00 31,5 11,8 13 7 25 13 SE 1014,5 20 60 0,0
18.07.2018 18:00:00 32,5 12,2 13 7 26 14 SSE 1014,6 20 45 0,0
18.07.2018 17:00:00 32,8 11,9 14 8 27 15 ESE 1014,9 20 45 0,0
18.07.2018 16:00:00 32,7 12,3 13 7 26 14 ESE 1015,5 20 48 0,0
18.07.2018 15:00:00 32,9 14,5 16 9 30 16 NE 1015,8 20 60 0,0
18.07.2018 14:00:00 31,6 16,4 15 8 27 15 N 1016,0 20 60 -
18.07.2018 13:00:00 31,6 17,1 11 6 27 15 NE 1016,2 20 60 0,0
18.07.2018 12:00:00 30,8 17,5 10 5 26 14 NE 1016,1 20 60 0,0
18.07.2018 11:00:00 29,2 16,7 6 3 12 7 SE 1016,9 20 60 0,0
18.07.2018 10:00:00 26,9 17,1 4 2 9 5 N 1017,0 20 51 0,0
18.07.2018 09:00:00 24,5 19,8 2 1 7 4 NNW 1016,6 20 60 0,0
18.07.2018 08:00:00 20,8 19,1 3 1 7 4 S 1016,8 19 8 -
18.07.2018 07:00:00 19,2 17,5 5 3 8 4 SSW 1017,1 18 0 0,0
18.07.2018 06:00:00 19,3 17,5 5 3 7 4 WSW 1016,7 19 0 0,0
18.07.2018 05:00:00 19,6 17,4 3 2 8 4 S 1016,7 17 0 0,0
18.07.2018 04:00:00 20,6 18,4 4 2 7 4 WSW 1017,0 20 0 0,0
18.07.2018 03:00:00 21,6 19,3 5 3 7 4 W 1017,1 2,2 0 0,0
18.07.2018 02:00:00 22,3 19,1 3 1 7 4 WSW 1017,5 19 0 -
18.07.2018 01:00:00 23,2 19,3 6 3 9 5 W 1017,6 20 0 0,0
18.07.2018 00:00:00 24,1 19,6 6 3 9 5 S 1017,8 20 0 0,0
17.07.2018 23:00:00 25,1 19,3 4 2 13 7 SSW 1018,0 20 0 0,0
17.07.2018 22:00:00 26,1 19,5 9 5 22 12 S 1017,7 20 0 0,0
17.07.2018 21:00:00 27,2 19,3 14 7 27 15 S 1017,4 20 0 0,0
17.07.2018 20:00:00 28,8 18,8 14 7 26 14 SSE 1017,0 17 18 -
17.07.2018 19:00:00 29,4 18,8 13 7 29 16 SSE 1016,7 20 0 0,0
17.07.2018 18:00:00 30,4 19,1 18 10 30 16 SE 1017,2 20 18 0,0
17.07.2018 17:00:00 31,3 18,3 15 8 27 14 SE 1017,4 20 40 0,0
17.07.2018 16:00:00 31,5 17,8 9 5 25 13 ESE 1017,6 20 12 0,0
17.07.2018 15:00:00 31,6 16,7 16 8 25 14 NNE 1017,8 20 35 0,0
17.07.2018 14:00:00 30,8 16,4 13 7 33 18 NE 1018,2 20 36 -
17.07.2018 13:00:00 31,8 16,9 13 7 26 14 NE 1018,4 20 60 0,0
17.07.2018 12:00:00 30,4 18,5 9 5 23 12 N 1018,6 20 60 0,0
17.07.2018 11:00:00 29,5 18,6 7 4 16 9 N 1018,6 20 60 0,0
17.07.2018 10:00:00 28,1 18,5 6 4 15 8 ENE 1018,7 20 60 0,0
17.07.2018 09:00:00 25,5 16,9 2 1 6 3 NW 1018,6 20 60 0,0
17.07.2018 08:00:00 21,6 17,2 4 2 8 5 W 1018,3 13 57 -
17.07.2018 07:00:00 19,3 16,1 5 3 8 4 SW 1017,9 20 0 0,0
17.07.2018 06:00:00 19,6 16,2 5 3 9 5 NNW 1017,4 20 0 0,0
17.07.2018 05:00:00 20,4 16,2 3 2 11 6 NE 1017,4 20 0 0,0
17.07.2018 04:00:00 21,4 17,0 7 4 12 6 S 1017,2 20 0 0,0
17.07.2018 03:00:00 21,6 17,0 5 3 13 7 S 1017,7 20 0 0,0
17.07.2018 02:00:00 21,6 16,1 4 2 9 5 ESE 1017,8 20 0 -
17.07.2018 01:00:00 22,7 17,0 3 1 8 4 SW 1017,8 20 0 0,0
17.07.2018 00:00:00 23,6 18,2 3 2 7 4 WSW 1017,5 8 0 0,0
16.07.2018 23:00:00 24,4 18,3 4 2 7 4 NNW 1017,3 20 0 0,0
16.07.2018 22:00:00 25,3 18,8 3 2 16 9 NNE 1016,8 20 0 0,0
16.07.2018 21:00:00 26,2 19,3 12 6 22 12 E 1016,3 20 9 0,0
16.07.2018 20:00:00 29,3 17,1 11 6 29 16 NE 1015,4 20 60 -
16.07.2018 19:00:00 31,0 13,3 15 8 35 19 NW 1014,8 20 60 0,0
16.07.2018 18:00:00 31,1 13,9 21 12 40 22 NW 1014,8 20 60 0,0
16.07.2018 17:00:00 31,3 13,1 23 12 45 24 NW 1014,6 20 54 0,0
16.07.2018 16:00:00 32,5 14,1 14 7 36 20 NW 1014,1 20 60 0,0

tt = Température de l'air
td = dewpoint
ff = Vitesse du vent
fx = gusts
dd = Direction du vent
ppp = reduced air pressure
vv = visibility
sd = Ensoleillement
rr = Quantités de précipitations

stations d'obs. à proximité